Skip Page Navigation
NASA JPL Caltech
NASA Logo - Jet Propulsion Laboratory + View the NASA Portal
+ Center for Near-Earth Object Studies
JPL Home Earth Solar System Stars & Galaxies Technology
JPL Solar System Dynamics
BODIES ORBITS EPHEMERIDES TOOLS PHYSICAL DATA DISCOVERY FAQ SITE MAP
JPL Small-Body Database Browser
Search: [ help ]  
58163 Minnesang (1989 UJ7)
Classification: Main-belt Asteroid          SPK-ID: 2058163
Ephemeris | Orbit Diagram | Orbital Elements | Mission Design | Physical Parameters | Discovery Circumstances ]

[ show orbit diagram ]
Orbital Elements at Epoch 2459396.5 (2021-Jul-01.0) TDB
Reference: JPL 26 (heliocentric ecliptic J2000)
 Element Value Uncertainty (1-sigma)   Units 
e .1448768917584647 3.484e-08  
a 2.417350608416193 8.3403e-09 au
q 2.067132365978421 8.4596e-08 au
i 1.093517904267343 4.2048e-06 deg
node 176.840310713061 0.00016021 deg
peri 235.3005909185418 0.00016072 deg
M 144.3725330411571 1.1808e-05 deg
tp 2458845.958617798133
(2019-Dec-28.45861780)
4.4972e-05 TDB
period 1372.801968752406
3.76
7.1046e-06
1.945e-08
d
yr
n .2622373861593205 1.3572e-09 deg/d
Q 2.767568850853965 9.5486e-09 au
  Orbit Determination Parameters
   # obs. used (total)      1187  
   data-arc span      11520 days (31.54 yr)  
   first obs. used      1989-10-23  
   last obs. used      2021-05-08  
   planetary ephem.      DE441  
   SB-pert. ephem.      SB441-N16  
   condition code      0  
   norm. resid. RMS      .48989  
   source      ORB  
   producer      Otto Matic  
   solution date      2021-Jul-08 22:10:17  

Additional Information
 Earth MOID = 1.07776 au 
 Jupiter MOID = 2.57665 au 
 T_jup = 3.501 
[ show covariance matrix ]

Ephemeris | Orbit Diagram | Orbital Elements | Mission Design | Physical Parameters | Discovery Circumstances ]

Physical Parameter Table
Parameter Symbol Value Units Sigma Reference Notes
absolute magnitude H 15.66   n/a E2021B10  
rotation period rot_per 6.13 h n/a LCDB (Rev. 2020-October); Warner et al., 2009 Result based on less than full coverage, so that the period may be wrong by 30 percent or so.
Published Reference List:
[Molnar, L.; Pal, A.; Sarneczky, K.; Szabo, R.; et al. (2018) Ap. J. Supp. Ser. 234, A37.]

58163 Minnesang           Discovered 1989 Oct. 23 by F. Börngen at Tautenburg.
The Minnesang is a poetic-musical form created by the German-speaking peoples of the twelfth and thirteenth centuries. The Minnesänger, Walther von der Vogelweide and numerous others, both composed and performed their lyric songs, which dealt partly with courtly love ("Minne").
NOTE: some special characters may not display properly (any characters within {} are an attempt to place the proper accent above a character)
Reference: 20031110/MPCPages.arcLast Updated: 2003-11-12

Alternate Designations
 1989 UJ7 = 2000 QS79 
Ephemeris | Orbit Diagram | Orbital Elements | Mission Design | Physical Parameters | Discovery Circumstances ]
ABOUT SSD CREDITS/AWARDS PRIVACY/COPYRIGHT GLOSSARY LINKS
FirstGov 2021-Jul-30 16:36 UT
(server date/time)  
NASA Home Page
Site Manager:   Ryan S. Park
Webmaster  Alan B. Chamberlin